EW9732 Weather Reports


Display with metric or nautical units.
time (UTC)temp
F
wind
direction
speed
MPH
gust
MPH
rain 1hr
in
rain 24hr
in
rain mn
in
humidity
%
barometer
mb
20221204020041 38 224 0.0 1.0 0.00 0.00 0.00 51 1025.9
20221204014611 38 76 0.0 0.0 0.00 0.00 0.00 49 1026.0
20221204013041 39 76 0.0 0.0 0.00 0.00 0.00 46 1026.1
20221204011542 41 76 0.0 0.0 0.00 0.00 0.00 44 1025.9
20221204010039 41 76 0.0 0.0 0.00 0.00 0.00 43 1025.9
20221204004539 42 76 0.0 0.0 0.00 0.00 0.00 42 1025.9
20221204003040 42 76 0.0 0.0 0.00 0.00 0.00 41 1025.8
20221204001544 44 76 1.0 2.0 0.00 0.00 0.00 38 1025.4
20221204000038 45 101 0.0 1.0 0.00 0.00 0.00 37 1025.6
20221203234544 47 101 0.0 1.0 0.00 0.00 0.00 34 1025.4
20221203233036 48 101 0.0 0.0 0.00 0.00 0.00 32 1025.4
20221203231539 49 101 0.0 1.0 0.00 0.00 0.00 31 1024.9
20221203230046 50 103 0.0 1.0 0.00 0.00 0.00 29 1025.1
20221203224538 51 73 0.0 2.0 0.00 0.00 0.00 28 1025.2
20221203223037 52 56 0.0 1.0 0.00 0.00 0.00 27 1024.9
20221203221536 52 56 0.0 1.0 0.00 0.00 0.00 26 1025.1
20221203220038 53 56 0.0 4.0 0.00 0.00 0.00 25 1025.2
20221203214534 53 27 1.0 4.0 0.00 0.00 0.00 25 1025.3
20221203213035 55 22 0.0 1.0 0.00 0.00 0.00 23 1025.3
20221203211531 55 195 0.0 1.0 0.00 0.00 0.00 23 1025.4
20221203210033 54 281 0.0 3.0 0.00 0.00 0.00 23 1025.9
20221203204534 53 200 0.0 3.0 0.00 0.00 0.00 24 1026.0
20221203203021 51 124 0.0 1.0 0.00 0.00 0.00 25 1026.3
20221203201520 50 128 0.0 4.0 0.00 0.00 0.00 26 1026.6
20221203200014 49 306 0.0 3.0 0.00 0.00 0.00 28 1026.5
20221203194515 48 27 0.0 3.0 0.00 0.00 0.00 29 1026.4
20221203193107 47 15 0.0 2.0 0.00 0.00 0.00 30 1026.7
20221203191504 45 307 1.0 3.0 0.00 0.00 0.00 31 1027.2
20221203190108 44 18 0.0 3.0 0.00 0.00 0.00 32 1027.3
20221203184557 43 336 0.0 3.0 0.00 0.00 0.00 33 1027.5
20221203183051 41 302 1.0 6.0 0.00 0.00 0.00 35 1027.8
20221203181551 39 285 0.0 2.0 0.00 0.00 0.00 38 1028.1
20221203180044 38 306 0.0 3.0 0.00 0.00 0.00 40 1028.4
20221203174544 35 358 1.0 3.0 0.00 0.00 0.00 42 1028.6
20221203173034 34 309 0.0 4.0 0.00 0.00 0.00 45 1028.8
20221203171535 32 340 0.0 4.0 0.00 0.00 0.00 48 1029.0
20221203170027 31 139 0.0 0.0 0.00 0.00 0.00 50 1028.8
20221203164527 29 139 0.0 0.0 0.00 0.00 0.00 52 1029.0
20221203163022 27 139 0.0 0.0 0.00 0.00 0.00 57 1029.1
20221203161517 25 214 0.0 0.0 0.00 0.00 0.00 60 1029.3
20221203160011 23 243 0.0 0.0 0.00 0.00 0.00 65 1029.5
20221203154508 22 210 0.0 0.0 0.00 0.00 0.00 67 1029.6
20221203153006 20 239 0.0 0.0 0.00 0.00 0.00 69 1029.7
20221203151505 18 251 0.0 0.0 0.00 0.00 0.00 71 1030.0
20221203150003 17 160 0.0 0.0 0.00 0.00 0.00 75 1029.9
20221203144503 16 139 0.0 0.0 0.00 0.00 0.00 79 1029.9
20221203143001 15 139 0.0 0.0 0.00 0.00 0.00 79 1029.8
20221203141601 14 165 0.0 0.0 0.00 0.00 0.00 80 1029.9
20221203140102 14 96 0.0 0.0 0.00 0.00 0.00 79 1029.5
20221203134600 14 96 0.0 0.0 0.00 0.00 0.00 77 1029.5
20221203133059 14 96 0.0 0.0 0.00 0.00 0.00 77 1029.1
20221203131555 14 295 0.0 0.0 0.00 0.00 0.00 78 1028.9
20221203130054 14 295 0.0 0.0 0.00 0.00 0.00 77 1028.1
20221203124555 14 295 0.0 0.0 0.00 0.00 0.00 78 1028.2
20221203123048 14 295 0.0 0.0 0.00 0.00 0.00 76 1028.0
20221203121549 14 295 0.0 1.0 0.00 0.00 0.00 76 1027.5
20221203120053 15 117 0.0 1.0 0.00 0.00 0.00 75 1026.9
20221203114542 15 97 0.0 0.0 0.00 0.00 0.00 75 1027.0
20221203113045 15 285 0.0 1.0 0.00 0.00 0.00 75 1026.6
20221203111543 15 109 0.0 0.0 0.00 0.00 0.00 74 1026.4
20221203110049 15 131 0.0 0.0 0.00 0.00 0.00 73 1026.3
20221203104545 16 130 0.0 0.0 0.00 0.00 0.00 72 1026.3
20221203103038 16 131 0.0 0.0 0.00 0.00 0.00 71 1026.1
20221203101532 16 131 0.0 0.0 0.00 0.00 0.00 70 1025.8
20221203100034 17 131 0.0 0.0 0.00 0.00 0.00 68 1025.7
20221203094526 17 131 0.0 0.0 0.00 0.00 0.00 66 1025.3
20221203093024 18 131 0.0 0.0 0.00 0.00 0.00 66 1025.2
20221203091523 18 144 0.0 0.0 0.00 0.00 0.00 65 1024.9
20221203090021 18 144 0.0 0.0 0.00 0.00 0.00 63 1024.7
20221203084530 18 162 0.0 0.0 0.00 0.00 0.00 62 1024.7
20221203083019 18 117 0.0 0.0 0.00 0.00 0.00 62 1024.5
20221203081517 18 117 0.0 0.0 0.00 0.00 0.00 62 1024.4
20221203080014 19 117 0.0 0.0 0.00 0.00 0.00 59 1024.0
20221203074515 19 117 0.0 0.0 0.00 0.00 0.00 58 1024.1
20221203073008 20 117 0.0 0.0 0.00 0.00 0.00 57 1023.9
20221203071515 20 117 0.0 0.0 0.00 0.00 0.00 56 1023.9
20221203070004 20 117 0.0 0.0 0.00 0.00 0.00 53 1023.4
20221203064603 21 117 0.0 0.0 0.00 0.00 0.00 52 1023.3
20221203063109 22 117 0.0 0.0 0.00 0.00 0.00 49 1023.3
20221203061554 23 117 0.0 4.0 0.00 0.00 0.00 46 1023.3
20221203060052 24 85 0.0 5.0 0.00 0.00 0.00 46 1022.8
20221203054607 24 96 0.0 4.0 0.00 0.00 0.00 45 1022.4
20221203053045 24 115 2.0 7.0 0.00 0.00 0.00 44 1022.0
20221203051543 25 90 2.0 9.0 0.00 0.00 0.00 43 1021.9
20221203050042 25 146 2.0 12.0 0.00 0.00 0.00 42 1021.6
20221203044537 26 162 3.0 13.0 0.00 0.00 0.00 42 1021.2
20221203043034 26 113 2.0 8.0 0.00 0.00 0.00 42 1021.0
20221203041536 27 113 2.0 9.0 0.00 0.00 0.00 42 1021.0
20221203040034 27 140 3.0 11.0 0.00 0.00 0.00 41 1020.6
20221203034524 28 98 1.0 5.0 0.00 0.00 0.00 44 1020.3
20221203033022 28 108 0.0 3.0 0.00 0.00 0.00 44 1020.1
20221203031518 29 113 0.0 4.0 0.00 0.00 0.00 45 1019.8
20221203030022 29 148 0.0 4.0 0.00 0.00 0.00 44 1019.1
20221203024513 29 120 0.0 4.0 0.00 0.00 0.00 45 1019.0
20221203023009 30 155 0.0 2.0 0.00 0.00 0.00 44 1018.8
20221203021513 31 150 0.0 6.0 0.00 0.00 0.00 43 1018.3